Temperature
20 21 22 22 22 21 20 19 19 20 19 19 19 19 19 20 20 21 21 21 21 21 21 21 21 21 20 20 20 19 19 19 19 19 18 18 18 18 18 18 18 17 17 17
21 21 22 22 22 21 21 20 20 20 20 19 19 19 19 19 20 20 21 21 21 21 21 21 21 20 20 20 19 19 19 19 18 18 18 18 18 18 18 17 17 17 17 16
19 20 22 21 21 21 20 20 20 20 20 18 18 18 19 19 20 20 21 21 21 21 20 20 20 20 20 19 19 19 19 18 18 18 18 18 17 17 17 17 17 16 16 16
17 20 21 21 20 21 20 20 19 19 19 18 18 19 20 20 20 20 21 21 21 20 20 20 20 20 19 19 19 18 18 18 18 17 17 17 17 17 17 16 16 16 16 16
16 18 20 21 20 20 20 20 19 18 18 18 18 19 19 20 20 20 20 20 20 20 20 20 20 19 19 19 18 18 18 18 17 17 17 17 17 16 16 16 16 16 15 15
16 19 19 20 20 20 20 20 19 18 17 18 18 17 18 20 20 20 20 20 20 20 20 19 19 19 19 19 18 18 17 17 17 17 17 17 16 16 16 16 16 15 15 15
16 18 18 19 19 20 20 19 19 18 18 18 17 18 19 19 19 20 20 19 19 19 19 19 19 19 19 18 18 17 17 17 17 17 16 16 16 16 16 15 15 15 15 14
15 17 18 18 18 18 18 19 19 18 19 18 18 19 19 19 19 19 19 19 19 19 19 19 18 18 18 18 18 17 17 17 17 16 16 16 16 16 15 15 15 15 14 14
15 16 16 17 18 19 19 18 19 19 19 19 19 19 19 19 19 19 19 18 18 18 18 18 18 18 18 17 17 17 16 16 16 16 16 15 15 15 15 15 15 14 14 14
14 15 16 17 18 18 19 19 19 19 19 19 19 18 19 18 18 18 18 18 18 18 17 17 17 17 17 17 16 16 16 16 15 15 15 15 15 15 14 14 14 14 14 14
14 15 16 18 18 19 19 19 19 19 19 19 18 18 18 18 18 18 18 17 17 17 17 17 17 17 16 16 16 16 15 15 15 15 14 14 14 14 14 14 14 14 14 13
15 16 15 17 18 19 19 18 18 18 18 18 18 18 18 18 18 17 17 17 17 17 17 16 16 16 16 16 15 15 15 15 15 14 14 14 14 14 14 13 13 13 13 13
17 17 17 18 18 18 18 18 18 18 18 18 18 17 17 17 17 17 17 17 16 16 16 16 16 16 15 15 15 15 15 14 14 14 14 14 14 13 13 13 13 13 13 13
17 17 17 17 17 18 18 18 17 17 17 17 17 17 17 17 16 16 16 16 16 16 16 15 15 15 15 15 15 15 14 14 14 14 14 13 13 13 13 12 13 13 13 13
17 17 17 17 17 17 17 17 17 17 17 17 17 16 16 16 16 16 16 15 15 15 15 15 15 15 15 14 14 14 14 14 14 13 13 13 13 13 12 12 12 12 12 12
17 17 17 16 16 16 17 16 16 16 16 16 16 16 16 15 15 15 15 15 15 15 15 15 14 14 14 14 14 14 13 13 13 13 13 13 13 12 12 12 12 12 12 12
16 16 16 16 16 16 16 16 16 16 16 15 15 15 15 15 14 14 14 14 14 14 14 14 14 14 14 13 13 13 13 13 13 13 12 12 12 12 12 12 12 12 12 12
16 16 15 15 15 15 15 15 15 15 15 15 15 15 15 14 14 14 14 14 14 13 13 13 13 13 13 13 13 13 13 13 12 12 12 12 12 12 12 11 11 11 11 11
15 15 15 15 15 15 15 14 14 14 14 14 14 14 14 14 14 13 13 13 13 13 13 13 13 13 13 13 12 12 12 12 12 12 12 11 11 11 11 11 11 11 11 11
14 14 14 14 14 14 14 14 14 14 14 14 14 13 13 13 13 13 13 13 13 12 12 12 12 12 12 12 12 12 12 11 11 11 11 11 11 11 11 11 10 10 10 10
14 14 14 14 14 14 14 13 13 13 13 13 13 13 13 13 13 12 12 12 12 12 12 12 12 12 12 12 12 11 11 11 11 11 11 11 11 10 10 10 10 10 10 10
13 13 13 13 13 13 13 13 13 13 13 13 13 13 12 12 12 12 12 12 12 12 12 12 12 12 11 11 11 11 11 11 11 10 10 10 10 10 10 10 10 10 10 10
13 13 13 13 13 12 12 12 12 12 12 12 12 12 12 12 12 12 12 11 11 11 11 11 11 11 11 11 11 11 11 10 10 10 10 10 10 10 10 10 9 9 9 9
12 12 12 12 12 12 12 12 12 12 12 12 12 12 12 12 11 11 11 11 11 11 11 11 11 11 11 10 10 10 10 10 10 10 10 9 9 9 9 9 9 9 9 9
12 12 12 12 12 12 12 12 12 12 11 11 11 11 11 11 11 11 11 11 11 11 11 10 10 10 10 10 10 10 10 9 9 9 9 9 9 9 9 9 9 9 9 9
12 11 11 11 11 11 11 11 11 11 11 11 11 11 11 11 10 10 10 10 10 10 10 10 10 10 10 9 9 9 9 9 9 9 9 8 9 9 8 8 8 8 8 8
11 11 11 11 11 11 11 11 11 11 11 11 10 10 10 10 10 10 10 10 10 10 9 9 9 9 9 9 9 9 9 8 8 8 8 8 8 8 8 8 8 8 8 8
Wind_Speed
2 2 3 3 3 5 5 7 7 7 6 7 6 4 2 0 1 1 1 1 0 1 2 2 3 4 4 4 3 4 4 4 3 2 1 1 1 1 0 1 1 1 1 2
2 1 2 1 1 3 3 3 4 3 5 5 2 1 0 0 0 1 1 1 1 1 1 2 3 4 4 4 4 4 4 4 3 2 1 1 2 1 1 1 1 1 1 2
1 3 3 2 3 4 3 2 6 6 6 2 1 2 3 2 1 2 2 1 1 1 1 1 2 3 4 5 4 4 4 3 3 2 2 2 2 1 1 2 1 2 2 2
2 3 3 6 2 3 4 1 2 3 2 4 4 3 2 2 2 2 2 2 1 1 1 1 1 1 2 2 3 3 3 3 3 3 3 2 2 2 2 2 2 2 2 3
4 3 4 5 1 2 3 1 1 2 1 1 2 3 3 1 1 3 3 2 1 1 1 0 0 1 2 2 3 2 3 3 3 3 3 2 2 3 2 2 2 2 2 2
5 4 6 6 2 1 3 2 2 3 3 2 4 1 4 3 2 2 2 1 0 0 1 1 1 1 3 2 2 3 4 4 3 4 4 4 4 3 2 2 2 2 2 2
4 3 6 4 4 1 3 6 3 3 3 3 3 4 4 2 2 1 1 1 0 1 0 1 1 2 3 3 3 4 3 2 2 3 3 4 3 2 1 1 1 1 1 2
4 3 6 3 2 3 5 2 1 2 3 3 2 2 2 1 1 0 1 1 1 1 1 1 1 2 2 2 3 1 1 1 1 1 2 2 1 1 1 1 1 1 1 2
6 6 5 3 3 3 3 2 2 2 2 2 1 1 1 1 1 1 0 0 0 1 1 2 1 2 2 2 1 1 1 1 0 0 1 1 1 1 1 1 1 2 2 3
1 3 3 3 1 1 0 1 2 2 2 1 0 1 1 1 1 1 1 1 0 1 0 1 1 1 1 1 2 2 2 1 1 0 1 1 0 1 1 2 2 2 2 3
1 3 3 4 2 1 2 2 3 2 1 0 1 0 1 1 1 1 1 1 0 1 1 1 1 0 0 1 2 3 2 1 1 1 1 1 1 1 2 2 3 3 3 3
5 6 4 3 3 1 2 1 1 2 2 1 1 1 0 0 1 1 0 0 0 1 1 2 1 1 1 1 2 3 1 1 1 1 1 1 1 2 2 2 2 4 4 3
4 3 3 2 1 1 1 0 1 1 0 0 1 1 1 0 1 0 0 0 1 2 2 2 1 1 2 1 2 3 2 2 2 2 2 2 2 2 2 3 3 3 3 4
3 3 2 0 0 1 1 0 1 2 2 1 1 1 1 1 1 0 1 1 1 1 1 1 1 2 2 1 1 2 2 2 2 2 2 2 2 2 2 2 3 3 3 4
0 1 3 1 1 1 1 1 2 2 2 2 2 1 1 1 1 1 1 0 1 1 1 0 1 3 2 1 1 2 2 2 2 2 2 2 2 2 2 2 2 3 3 3
1 2 2 2 1 1 1 1 1 0 1 1 1 1 1 1 0 1 1 1 2 0 2 1 2 3 2 1 1 1 1 2 2 1 1 1 2 2 2 2 2 2 3 3
3 2 2 1 0 0 0 0 1 1 0 0 1 0 2 2 2 2 2 1 0 1 1 2 3 3 1 1 1 1 1 1 1 1 1 2 2 2 3 3 3 3 4 4
4 4 4 4 3 1 1 1 1 0 1 1 0 1 1 0 1 1 2 1 1 2 3 3 2 2 1 1 1 1 1 1 1 1 2 2 2 2 3 3 3 4 4 3
3 3 2 2 2 1 0 1 1 1 0 1 1 1 1 1 1 1 0 1 1 3 4 4 3 2 2 2 1 0 0 1 1 1 2 2 2 2 3 3 3 3 3 3
2 2 2 1 1 1 0 1 1 1 1 1 1 1 1 2 1 0 0 1 3 4 4 4 3 2 2 2 1 0 1 1 1 1 2 2 2 2 3 3 3 3 3 4
2 2 2 2 1 1 0 0 0 0 1 1 1 1 2 2 1 0 0 2 4 3 3 3 2 2 2 1 1 1 1 1 1 2 2 2 2 2 3 3 3 3 3 4
1 1 1 1 0 1 2 1 0 0 0 1 1 1 1 2 2 2 2 3 4 4 2 2 2 2 2 1 0 1 1 1 2 2 2 2 2 2 2 3 3 3 3 3
1 1 1 1 1 1 1 1 0 1 1 1 1 1 2 2 2 1 3 3 3 3 2 2 2 2 2 1 0 1 1 1 2 2 2 2 2 3 3 3 3 3 3 3
0 0 1 1 0 1 1 2 1 1 1 2 2 2 2 1 2 2 3 4 3 2 2 2 3 2 2 1 1 1 1 1 2 2 2 2 2 2 2 2 2 2 3 3
1 1 0 0 0 1 2 2 2 2 1 1 2 2 1 1 2 2 2 2 2 2 2 2 3 2 1 1 1 1 1 1 1 1 1 1 1 1 1 2 2 2 2 2
1 1 2 2 2 2 1 1 1 1 1 2 2 2 2 1 2 2 2 2 2 2 2 2 2 1 1 1 1 1 1 1 1 1 1 1 1 1 1 2 2 2 2 2
1 1 1 1 2 2 1 1 2 2 2 2 2 2 2 1 1 2 2 2 2 2 1 1 1 1 1 1 1 1 1 1 1 1 1 1 1 1 1 2 2 2 2 2
Wind_Direction
202 215 168 176 184 163 166 177 181 215 219 249 242 234 237 245 49 51 38 41 194 212 207 193 186 189 192 199 191 177 174 187 206 210 204 220 251 256 264 247 249 248 256 275
28 14 111 93 230 173 175 171 182 196 247 252 239 173 139 11 22 351 310 308 309 286 229 210 204 199 191 197 191 175 183 200 205 188 188 216 238 245 249 262 280 280 263 267
244 313 48 299 255 183 171 186 169 198 228 183 157 199 211 217 228 255 272 269 262 254 241 248 235 209 201 197 181 177 190 197 190 190 213 231 238 246 250 251 256 268 260 249
114 74 207 249 285 156 142 162 219 215 212 188 204 214 231 208 209 250 262 262 267 294 312 288 239 206 189 170 167 183 198 203 196 194 216 230 242 254 260 252 248 252 260 260
120 156 267 294 329 141 146 251 249 183 140 87 91 55 350 297 241 236 251 262 250 229 236 248 235 186 149 150 164 182 209 211 206 201 208 213 229 252 256 237 250 258 263 255
122 150 220 246 293 279 115 287 260 167 155 135 96 86 273 293 300 279 302 305 307 35 66 65 298 149 143 159 168 207 223 221 213 203 205 214 223 232 237 222 233 253 279 284
140 186 254 269 296 63 151 243 252 196 182 162 176 212 245 275 296 300 336 327 72 102 62 274 243 146 153 170 207 221 215 211 214 214 214 218 216 218 227 233 255 275 292 301
140 170 248 307 65 162 219 255 212 188 179 166 196 251 254 241 264 330 353 353 49 60 349 340 54 112 161 214 233 216 178 179 215 228 231 229 199 224 230 220 238 271 278 294
182 207 251 270 238 254 189 184 207 176 188 155 156 244 263 275 307 319 307 312 51 104 5 355 46 119 174 242 231 119 110 169 230 275 257 250 198 213 236 232 230 261 266 274
240 280 292 307 331 11 69 179 180 164 160 128 211 241 271 312 336 337 319 310 307 118 101 330 346 111 183 186 143 130 142 169 170 151 304 309 256 204 207 225 235 253 265 277
239 273 330 342 349 20 37 58 72 55 44 136 139 149 205 242 283 280 277 293 237 174 220 264 282 290 280 172 149 145 152 164 167 186 223 277 287 243 228 236 222 224 243 248
213 221 188 246 289 4 76 56 72 70 16 352 147 168 146 291 289 282 267 271 243 250 257 266 257 272 287 211 161 152 156 181 204 224 237 235 266 313 319 267 267 243 239 236
213 207 190 227 342 31 106 342 356 68 164 308 1 129 144 193 329 86 125 173 220 239 254 262 259 276 278 237 179 166 182 203 207 218 225 230 238 253 302 329 328 306 282 267
184 133 114 161 247 339 107 70 34 27 7 42 90 98 116 102 54 83 201 216 210 213 255 250 248 276 275 242 200 192 198 216 216 226 223 229 238 244 251 276 307 321 319 298
309 173 179 167 78 43 60 90 72 25 12 17 40 67 96 119 158 250 280 80 83 68 346 297 289 291 294 235 209 213 210 224 223 227 231 237 250 255 258 263 269 285 306 315
59 80 103 97 91 71 74 94 109 326 353 22 38 25 42 77 51 26 20 83 96 310 298 303 286 285 291 216 212 243 245 229 212 220 235 246 256 255 257 257 263 272 278 283
120 125 119 113 101 32 355 242 211 236 248 210 239 321 51 46 36 19 350 341 230 258 278 273 277 290 296 226 215 239 252 271 262 248 249 253 255 251 246 247 255 262 269 268
164 173 170 169 172 179 339 349 348 302 242 244 99 79 83 114 238 278 296 331 358 342 314 293 292 307 301 276 229 227 237 251 252 256 260 260 263 259 253 250 252 260 275 281
137 142 136 135 146 143 141 328 324 339 12 90 118 168 235 245 243 264 320 11 321 298 297 304 309 306 297 297 303 252 252 263 271 276 266 259 262 263 258 256 256 255 265 271
97 102 96 80 82 108 103 321 351 27 21 87 97 50 337 306 296 267 305 271 260 257 276 296 305 299 290 292 297 248 236 249 263 280 275 265 264 267 264 267 271 270 271 265
107 105 104 94 54 20 291 224 112 17 357 84 136 240 282 300 297 274 246 284 288 285 287 290 293 290 284 285 286 263 254 255 256 260 264 265 268 270 269 272 274 272 268 267
127 129 140 136 97 343 326 314 219 192 20 357 348 321 303 303 316 321 283 258 282 301 308 301 296 283 283 289 243 248 261 264 267 266 266 263 259 265 272 276 277 284 282 275
134 164 185 221 229 260 318 340 296 209 242 271 268 258 254 260 263 264 291 286 289 300 306 299 295 296 313 338 277 252 261 276 284 280 275 266 259 261 268 276 279 290 301 300
50 294 261 259 144 80 352 324 323 299 264 266 263 250 235 255 288 270 263 290 297 300 313 304 303 313 338 351 316 292 282 289 295 298 300 295 284 279 279 279 288 302 309 316
238 235 203 79 39 275 266 291 332 331 323 320 313 302 284 246 253 282 292 297 303 317 324 319 320 331 355 348 335 316 304 296 296 311 326 318 308 307 308 308 305 306 312 317
254 256 252 240 235 244 248 244 258 280 302 318 319 313 313 310 300 310 324 327 331 331 333 330 334 345 1 357 351 339 322 320 324 318 319 321 323 321 321 320 320 320 327 335
281 265 278 306 297 275 265 248 242 253 252 257 285 298 306 321 340 353 357 346 335 335 340 333 341 3 5 3 2 358 356 352 348 340 339 345 343 333 326 319 318 324 335 344
Height
1502 1498 1498 1499 1501 1504 1508 1512 1518 1514 1513 1505 1502 1501 1500 1500 1500 1500 1501 1501 1502 1503 1504 1505 1506 1507 1508 1510 1511 1513 1514 1515 1515 1516 1516 1516 1516 1516 1515 1515 1515 1514 1514 1513
1502 1498 1498 1500 1499 1500 1503 1505 1508 1507 1507 1498 1499 1500 1500 1500 1500 1500 1501 1501 1502 1503 1503 1504 1505 1506 1506 1508 1509 1510 1511 1512 1513 1514 1514 1514 1514 1513 1513 1513 1512 1512 1511 1511
1512 1505 1500 1509 1500 1500 1501 1500 1502 1506 1502 1498 1498 1499 1499 1499 1499 1499 1500 1501 1501 1502 1502 1503 1503 1504 1505 1506 1507 1508 1509 1510 1511 1511 1511 1511 1511 1511 1510 1510 1509 1508 1508 1508
1516 1511 1519 1507 1494 1494 1497 1498 1497 1497 1496 1496 1496 1497 1498 1498 1499 1499 1499 1499 1499 1500 1500 1501 1502 1502 1503 1504 1505 1506 1507 1507 1508 1508 1508 1508 1508 1508 1508 1507 1506 1505 1505 1504
1520 1520 1514 1501 1494 1494 1498 1500 1496 1496 1496 1496 1497 1498 1498 1499 1499 1499 1499 1498 1499 1499 1499 1499 1500 1500 1501 1502 1503 1504 1505 1505 1505 1506 1506 1506 1506 1506 1505 1504 1503 1503 1502 1501
1518 1518 1520 1504 1493 1491 1496 1502 1495 1494 1495 1496 1496 1501 1499 1498 1498 1498 1498 1498 1497 1497 1497 1497 1497 1498 1499 1500 1500 1501 1502 1503 1503 1503 1503 1503 1503 1503 1503 1502 1501 1500 1500 1499
1517 1516 1510 1496 1492 1492 1506 1503 1493 1493 1493 1494 1495 1497 1497 1496 1496 1496 1496 1496 1496 1496 1496 1496 1496 1496 1496 1497 1498 1499 1500 1500 1501 1501 1501 1501 1501 1501 1500 1500 1499 1498 1497 1497
1517 1517 1512 1494 1492 1496 1497 1492 1491 1492 1492 1493 1494 1495 1495 1495 1494 1494 1494 1494 1494 1494 1494 1495 1495 1495 1495 1496 1497 1497 1497 1498 1498 1499 1499 1499 1499 1498 1498 1498 1497 1496 1495 1494
1505 1506 1496 1493 1492 1492 1491 1491 1491 1491 1492 1493 1493 1493 1494 1493 1493 1493 1493 1493 1493 1493 1493 1493 1494 1494 1494 1495 1495 1495 1496 1496 1496 1496 1496 1496 1496 1495 1495 1495 1494 1493 1492 1491
1500 1496 1493 1492 1491 1491 1491 1491 1491 1492 1492 1492 1493 1492 1492 1492 1492 1492 1491 1492 1492 1492 1492 1492 1492 1492 1492 1493 1493 1494 1493 1493 1494 1494 1494 1494 1494 1493 1492 1492 1491 1490 1489 1488
1499 1495 1492 1492 1491 1491 1491 1491 1491 1491 1492 1492 1492 1491 1492 1491 1491 1490 1490 1490 1490 1490 1490 1491 1492 1492 1492 1492 1492 1491 1491 1491 1492 1492 1491 1491 1491 1491 1490 1489 1489 1488 1486 1486
1496 1492 1492 1492 1492 1491 1491 1491 1491 1491 1492 1492 1491 1491 1490 1490 1489 1489 1488 1489 1489 1490 1490 1490 1490 1490 1490 1490 1489 1489 1488 1488 1489 1489 1489 1488 1488 1487 1486 1486 1486 1485 1484 1483
1489 1490 1490 1491 1491 1492 1492 1492 1492 1492 1492 1491 1490 1490 1489 1488 1488 1488 1488 1488 1488 1488 1489 1489 1489 1489 1489 1488 1488 1487 1487 1487 1486 1486 1485 1485 1485 1485 1483 1483 1483 1482 1481 1481
1488 1489 1490 1490 1491 1492 1492 1492 1492 1492 1491 1490 1490 1489 1488 1487 1487 1487 1486 1486 1487 1487 1487 1487 1487 1487 1487 1487 1486 1485 1485 1485 1484 1483 1483 1482 1482 1481 1480 1480 1479 1478 1478 1478
1488 1488 1489 1490 1491 1491 1491 1491 1491 1491 1490 1489 1489 1488 1487 1486 1485 1485 1485 1485 1485 1485 1485 1485 1485 1484 1484 1484 1484 1483 1482 1482 1481 1481 1480 1479 1479 1478 1477 1477 1476 1475 1475 1475
1487 1487 1488 1489 1489 1490 1490 1491 1490 1490 1489 1488 1488 1487 1486 1485 1484 1483 1483 1483 1483 1483 1483 1483 1482 1482 1482 1481 1481 1480 1479 1479 1479 1478 1477 1477 1476 1475 1474 1474 1473 1472 1472 1472
1485 1486 1487 1488 1489 1489 1489 1489 1489 1488 1488 1487 1487 1486 1485 1484 1483 1482 1482 1482 1482 1481 1481 1481 1480 1480 1480 1479 1479 1478 1477 1476 1476 1475 1474 1474 1473 1472 1471 1471 1470 1469 1469 1469
1485 1486 1487 1487 1488 1488 1488 1488 1488 1487 1487 1486 1486 1485 1484 1484 1482 1482 1481 1481 1480 1480 1480 1479 1479 1478 1477 1477 1476 1475 1474 1473 1473 1471 1471 1470 1470 1469 1469 1468 1467 1466 1466 1465
1484 1485 1486 1487 1487 1487 1487 1487 1486 1486 1485 1485 1485 1484 1484 1483 1482 1481 1481 1480 1479 1478 1478 1477 1477 1476 1475 1474 1473 1473 1472 1471 1470 1469 1468 1467 1467 1466 1465 1465 1464 1463 1462 1462
1484 1485 1485 1486 1486 1486 1486 1486 1485 1484 1484 1484 1483 1483 1482 1482 1481 1480 1479 1478 1478 1477 1476 1475 1474 1474 1473 1472 1471 1470 1469 1468 1467 1466 1465 1464 1463 1463 1462 1461 1460 1459 1459 1458
1483 1484 1485 1485 1485 1485 1485 1485 1484 1483 1483 1483 1482 1481 1481 1480 1479 1478 1477 1476 1476 1475 1474 1473 1472 1471 1471 1470 1468 1467 1466 1465 1464 1463 1462 1461 1461 1460 1459 1458 1457 1456 1455 1455
1483 1483 1484 1484 1484 1484 1484 1483 1483 1482 1482 1482 1481 1480 1480 1478 1478 1477 1476 1475 1474 1473 1472 1471 1470 1469 1468 1467 1466 1464 1463 1462 1461 1461 1460 1459 1458 1457 1456 1455 1454 1453 1452 1452
1482 1482 1483 1483 1483 1483 1483 1482 1482 1481 1481 1480 1479 1479 1478 1477 1476 1475 1474 1473 1472 1471 1470 1469 1468 1467 1466 1464 1463 1462 1461 1460 1459 1458 1457 1456 1455 1454 1454 1453 1452 1451 1450 1449
1482 1482 1482 1482 1482 1481 1481 1480 1480 1480 1479 1479 1478 1477 1476 1475 1474 1474 1473 1472 1471 1469 1468 1467 1466 1464 1463 1461 1460 1459 1458 1457 1456 1455 1454 1453 1452 1452 1451 1450 1449 1449 1448 1447
1481 1481 1480 1480 1480 1480 1479 1479 1478 1478 1477 1476 1476 1475 1475 1474 1473 1472 1471 1470 1468 1467 1466 1465 1463 1462 1460 1459 1458 1457 1456 1455 1454 1453 1452 1451 1450 1450 1449 1448 1447 1446 1445 1444
1479 1479 1479 1478 1478 1478 1477 1477 1476 1476 1475 1474 1474 1473 1472 1471 1471 1469 1468 1467 1466 1465 1463 1462 1461 1459 1458 1457 1456 1455 1454 1453 1452 1451 1450 1449 1448 1448 1447 1446 1445 1444 1443 1442
1477 1477 1477 1477 1476 1476 1475 1475 1474 1473 1473 1472 1471 1471 1470 1469 1468 1467 1466 1465 1464 1462 1461 1460 1459 1458 1456 1455 1454 1453 1452 1451 1450 1449 1449 1448 1447 1446 1445 1444 1443 1442 1441 1440